Time,TemperatureF,DewpointF,PressureIn,WindDirection,WindDirectionDegrees,WindSpeedMPH,WindSpeedGustMPH,Humidity,HourlyPrecipIn,Conditions,Clouds,dailyrainin,SolarRadiationWatts/m^2,SoftwareType,DateUTC
2013-10-02 00:14:00,82.0,75.0,-100.00,East,86,10.0,-999.0,77,0.00,,,-99.99,0.000000,,2013-10-02 04:14:00,
2013-10-02 00:24:00,82.0,74.0,-100.00,East,89,10.0,-999.0,77,0.00,,,-99.99,0.000000,,2013-10-02 04:24:00,
2013-10-02 00:44:00,82.0,74.0,-100.00,East,91,10.0,-999.0,77,0.00,,,-99.99,0.000000,,2013-10-02 04:44:00,
2013-10-02 00:54:00,82.0,75.0,-100.00,East,89,9.0,-999.0,77,0.00,,,-99.99,0.000000,,2013-10-02 04:54:00,
2013-10-02 01:13:00,82.0,75.0,-100.00,East,91,9.0,-999.0,78,0.00,,,-99.99,0.000000,,2013-10-02 05:13:00,
2013-10-02 01:23:00,82.0,75.0,-100.00,East,92,10.0,-999.0,79,0.00,,,-99.99,0.000000,,2013-10-02 05:23:00,
2013-10-02 01:43:00,82.0,75.0,-100.00,East,92,10.0,-999.0,79,0.00,,,-99.99,0.000000,,2013-10-02 05:43:00,
2013-10-02 01:53:00,82.0,75.0,-100.00,East,93,9.0,-999.0,79,0.00,,,-99.99,0.000000,,2013-10-02 05:53:00,
2013-10-02 02:12:00,82.0,76.0,-100.00,East,94,8.0,-999.0,80,0.00,,,-99.99,0.000000,,2013-10-02 06:12:00,
2013-10-02 02:22:00,82.0,76.0,-100.00,East,89,9.0,-999.0,80,0.00,,,-99.99,0.000000,,2013-10-02 06:22:00,
2013-10-02 02:42:00,82.0,76.0,-100.00,East,88,9.0,-999.0,81,0.00,,,-99.99,0.000000,,2013-10-02 06:42:00,
2013-10-02 02:52:00,82.0,76.0,-100.00,East,85,9.0,-999.0,81,0.00,,,-99.99,0.000000,,2013-10-02 06:52:00,
2013-10-02 03:12:00,82.0,76.0,-100.00,East,88,9.0,-999.0,81,0.00,,,-99.99,0.000000,,2013-10-02 07:12:00,
2013-10-02 03:22:00,82.0,76.0,-100.00,East,83,8.0,-999.0,81,0.00,,,-99.99,0.000000,,2013-10-02 07:22:00,
2013-10-02 03:42:00,82.0,76.0,-100.00,East,90,9.0,-999.0,82,0.00,,,-99.99,0.000000,,2013-10-02 07:42:00,
2013-10-02 03:52:00,82.0,76.0,-100.00,East,84,8.0,-999.0,82,0.00,,,-99.99,0.000000,,2013-10-02 07:52:00,
2013-10-02 04:11:00,82.0,76.0,-100.00,East,91,8.0,-999.0,82,0.00,,,-99.99,0.000000,,2013-10-02 08:11:00,
2013-10-02 04:22:00,81.0,76.0,-100.00,East,83,7.0,-999.0,85,0.00,,,-99.99,0.000000,,2013-10-02 08:22:00,
2013-10-02 04:42:00,79.0,77.0,-100.00,NE,49,4.0,-999.0,91,0.00,,,-99.99,0.000000,,2013-10-02 08:42:00,
2013-10-02 04:52:00,79.0,77.0,-100.00,NE,50,4.0,-999.0,92,0.00,,,-99.99,0.000000,,2013-10-02 08:52:00,
2013-10-02 05:11:00,79.0,76.0,-100.00,ENE,71,5.0,-999.0,91,0.00,,,-99.99,0.000000,,2013-10-02 09:11:00,
2013-10-02 05:22:00,81.0,76.0,-100.00,East,97,8.0,-999.0,86,0.00,,,-99.99,0.000000,,2013-10-02 09:22:00,
2013-10-02 05:43:00,81.0,76.0,-100.00,East,86,7.0,-999.0,86,0.00,,,-99.99,0.000000,,2013-10-02 09:43:00,
2013-10-02 05:54:00,81.0,76.0,-100.00,ENE,76,5.0,-999.0,86,0.00,,,-99.99,0.000000,,2013-10-02 09:54:00,
2013-10-02 06:12:00,80.0,76.0,-100.00,East,94,6.0,-999.0,87,0.00,,,-99.99,0.000000,,2013-10-02 10:12:00,
2013-10-02 06:23:00,81.0,76.0,-100.00,East,86,6.0,-999.0,86,0.00,,,-99.99,0.000000,,2013-10-02 10:23:00,
2013-10-02 06:42:00,80.0,76.0,-100.00,ENE,58,4.0,-999.0,88,0.00,,,-99.99,0.000000,,2013-10-02 10:42:00,
2013-10-02 06:53:00,80.0,77.0,-100.00,ENE,67,4.0,-999.0,89,0.00,,,-99.99,0.000000,,2013-10-02 10:53:00,
2013-10-02 07:12:00,81.0,77.0,-100.00,East,82,3.0,-999.0,89,0.00,,,-99.99,0.000000,,2013-10-02 11:12:00,
2013-10-02 07:22:00,81.0,77.0,-100.00,ENE,62,4.0,-999.0,88,0.00,,,-99.99,0.000000,,2013-10-02 11:22:00,
2013-10-02 07:43:00,80.0,77.0,-100.00,ENE,57,4.0,-999.0,89,0.00,,,-99.99,0.700000,,2013-10-02 11:43:00,
2013-10-02 07:52:00,80.0,77.0,-100.00,ENE,60,4.0,-999.0,90,0.00,,,-99.99,3.600000,,2013-10-02 11:52:00,
2013-10-02 08:12:00,80.0,77.0,-100.00,ENE,76,4.0,-999.0,88,0.00,,,-99.99,11.700000,,2013-10-02 12:12:00,
2013-10-02 08:22:00,81.0,77.0,-100.00,ENE,72,5.0,-999.0,87,0.00,,,-99.99,30.600000,,2013-10-02 12:22:00,
2013-10-02 08:42:00,82.0,77.0,-100.00,East,85,7.0,-999.0,85,0.00,,,-99.99,51.700001,,2013-10-02 12:42:00,
2013-10-02 08:52:00,82.0,77.0,-100.00,East,85,7.0,-999.0,85,0.00,,,-99.99,53.099998,,2013-10-02 12:52:00,
2013-10-02 09:11:00,82.0,77.0,-100.00,East,87,9.0,-999.0,83,0.00,,,-99.99,90.699997,,2013-10-02 13:11:00,
2013-10-02 09:22:00,83.0,77.0,-100.00,East,86,10.0,-999.0,83,0.00,,,-99.99,164.800003,,2013-10-02 13:22:00,
2013-10-02 09:42:00,83.0,77.0,-100.00,East,88,10.0,-999.0,83,0.00,,,-99.99,113.400002,,2013-10-02 13:42:00,
2013-10-02 09:52:00,83.0,77.0,-100.00,East,86,9.0,-999.0,83,0.00,,,-99.99,135.899994,,2013-10-02 13:52:00,
2013-10-02 10:11:00,82.0,77.0,-100.00,ENE,74,8.0,-999.0,85,0.00,,,-99.99,110.199997,,2013-10-02 14:11:00,
2013-10-02 10:21:00,82.0,77.0,-100.00,ENE,70,7.0,-999.0,86,0.00,,,-99.99,106.199997,,2013-10-02 14:21:00,
2013-10-02 10:42:00,80.0,77.0,-100.00,East,83,10.0,-999.0,89,0.38,,,-99.99,54.400002,,2013-10-02 14:42:00,
2013-10-02 10:52:00,79.0,77.0,-100.00,East,94,7.0,-999.0,94,0.14,,,-99.99,26.799999,,2013-10-02 14:52:00,
2013-10-02 11:11:00,78.0,77.0,-100.00,East,81,6.0,-999.0,94,0.11,,,-99.99,113.900002,,2013-10-02 15:11:00,
2013-10-02 11:22:00,78.0,77.0,-100.00,NNE,23,2.0,-999.0,95,0.00,,,-99.99,32.099998,,2013-10-02 15:22:00,
2013-10-02 11:43:00,78.0,76.0,-100.00,East,82,8.0,-999.0,95,0.03,,,-99.99,31.200001,,2013-10-02 15:43:00,
2013-10-02 11:54:00,77.0,76.0,-100.00,East,81,7.0,-999.0,95,0.76,,,-99.99,18.900000,,2013-10-02 15:54:00,
2013-10-02 12:12:00,76.0,75.0,-100.00,ENE,69,4.0,-999.0,96,1.29,,,-99.99,15.900000,,2013-10-02 16:12:00,
2013-10-02 12:23:00,76.0,75.0,-100.00,NE,48,4.0,-999.0,97,0.57,,,-99.99,21.299999,,2013-10-02 16:23:00,
2013-10-02 12:43:00,77.0,76.0,-100.00,WNW,303,2.0,-999.0,97,0.08,,,-99.99,21.900000,,2013-10-02 16:43:00,
2013-10-02 12:53:00,77.0,76.0,-100.00,West,273,4.0,-999.0,97,0.00,,,-99.99,35.400002,,2013-10-02 16:53:00,
2013-10-02 13:12:00,77.0,76.0,-100.00,NW,305,2.0,-999.0,97,0.03,,,-99.99,41.700001,,2013-10-02 17:12:00,
2013-10-02 13:23:00,77.0,77.0,-100.00,WNW,286,2.0,-999.0,97,0.00,,,-99.99,37.599998,,2013-10-02 17:23:00,
2013-10-02 13:42:00,77.0,77.0,-100.00,SW,231,2.0,-999.0,97,0.00,,,-99.99,56.099998,,2013-10-02 17:42:00,
2013-10-02 13:52:00,78.0,77.0,-100.00,West,277,2.0,-999.0,97,0.03,,,-99.99,62.299999,,2013-10-02 17:52:00,
2013-10-02 14:12:00,78.0,78.0,-100.00,ENE,61,2.0,-999.0,97,0.00,,,-99.99,94.400002,,2013-10-02 18:12:00,
2013-10-02 14:22:00,79.0,78.0,-100.00,East,80,3.0,-999.0,96,0.00,,,-99.99,124.500000,,2013-10-02 18:22:00,
2013-10-02 14:42:00,80.0,77.0,-100.00,East,97,5.0,-999.0,92,0.00,,,-99.99,133.500000,,2013-10-02 18:42:00,
2013-10-02 14:52:00,80.0,77.0,-100.00,ESE,113,9.0,-999.0,91,0.00,,,-99.99,190.899994,,2013-10-02 18:52:00,
2013-10-02 15:11:00,80.0,77.0,-100.00,ESE,110,9.0,-999.0,91,0.00,,,-99.99,251.899994,,2013-10-02 19:11:00,
2013-10-02 15:22:00,80.0,77.0,-100.00,East,98,11.0,-999.0,90,0.00,,,-99.99,256.700012,,2013-10-02 19:22:00,
2013-10-02 15:42:00,81.0,77.0,-100.00,ESE,102,9.0,-999.0,89,0.00,,,-99.99,321.700012,,2013-10-02 19:42:00,
2013-10-02 15:52:00,82.0,77.0,-100.00,East,97,9.0,-999.0,87,0.00,,,-99.99,442.299988,,2013-10-02 19:52:00,
2013-10-02 16:11:00,83.0,78.0,-100.00,East,97,10.0,-999.0,85,0.00,,,-99.99,706.000000,,2013-10-02 20:11:00,
2013-10-02 16:22:00,83.0,78.0,-100.00,East,92,10.0,-999.0,84,0.00,,,-99.99,470.200012,,2013-10-02 20:22:00,
2013-10-02 16:42:00,83.0,78.0,-100.00,East,91,9.0,-999.0,85,0.00,,,-99.99,290.899994,,2013-10-02 20:42:00,
2013-10-02 16:52:00,83.0,77.0,-100.00,ESE,107,7.0,-999.0,82,0.00,,,-99.99,211.100006,,2013-10-02 20:52:00,
2013-10-02 17:11:00,83.0,77.0,-100.00,ESE,102,7.0,-999.0,82,0.00,,,-99.99,147.699997,,2013-10-02 21:11:00,
2013-10-02 17:22:00,84.0,77.0,-100.00,East,94,10.0,-999.0,80,0.00,,,-99.99,120.000000,,2013-10-02 21:22:00,
2013-10-02 17:44:00,84.0,76.0,-100.00,East,93,9.0,-999.0,78,0.00,,,-99.99,108.400002,,2013-10-02 21:44:00,
2013-10-02 17:55:00,84.0,76.0,-100.00,East,89,8.0,-999.0,77,0.00,,,-99.99,93.099998,,2013-10-02 21:55:00,
2013-10-02 18:13:00,83.0,76.0,-100.00,East,90,8.0,-999.0,78,0.00,,,-99.99,79.800003,,2013-10-02 22:13:00,
2013-10-02 18:24:00,83.0,76.0,-100.00,East,90,8.0,-999.0,77,0.00,,,-99.99,68.199997,,2013-10-02 22:24:00,
2013-10-02 18:44:00,83.0,75.0,-100.00,East,93,8.0,-999.0,77,0.00,,,-99.99,54.900002,,2013-10-02 22:44:00,
2013-10-02 18:54:00,83.0,75.0,-100.00,East,89,8.0,-999.0,76,0.00,,,-99.99,41.000000,,2013-10-02 22:54:00,
2013-10-02 19:12:00,83.0,75.0,-100.00,East,80,5.0,-999.0,77,0.00,,,-99.99,24.700001,,2013-10-02 23:12:00,
2013-10-02 19:22:00,83.0,75.0,-100.00,East,83,5.0,-999.0,78,0.00,,,-99.99,7.500000,,2013-10-02 23:22:00,
2013-10-02 19:42:00,82.0,75.0,-100.00,ENE,77,5.0,-999.0,78,0.00,,,-99.99,0.800000,,2013-10-02 23:42:00,
2013-10-02 19:52:00,82.0,75.0,-100.00,ENE,67,3.0,-999.0,80,0.00,,,-99.99,0.000000,,2013-10-02 23:52:00,
2013-10-02 20:12:00,82.0,76.0,-100.00,East,96,4.0,-999.0,82,0.00,,,-99.99,0.000000,,2013-10-03 00:12:00,
2013-10-02 20:22:00,81.0,76.0,-100.00,SE,125,5.0,-999.0,84,0.00,,,-99.99,0.000000,,2013-10-03 00:22:00,
2013-10-02 20:42:00,81.0,76.0,-100.00,ESE,106,3.0,-999.0,86,0.00,,,-99.99,0.000000,,2013-10-03 00:42:00,
2013-10-02 20:52:00,80.0,76.0,-100.00,East,83,1.0,-999.0,89,0.00,,,-99.99,0.000000,,2013-10-03 00:52:00,
2013-10-02 21:11:00,80.0,77.0,-100.00,NNW,343,1.0,-999.0,90,0.00,,,-99.99,0.000000,,2013-10-03 01:11:00,
2013-10-02 21:23:00,80.0,77.0,-100.00,NNE,27,1.0,-999.0,91,0.00,,,-99.99,0.000000,,2013-10-03 01:23:00,
2013-10-02 21:42:00,80.0,77.0,-100.00,NNE,33,1.0,-999.0,90,0.00,,,-99.99,0.000000,,2013-10-03 01:42:00,
2013-10-02 21:52:00,80.0,76.0,-100.00,NE,36,2.0,-999.0,87,0.00,,,-99.99,0.000000,,2013-10-03 01:52:00,
2013-10-02 22:11:00,81.0,76.0,-100.00,NE,42,2.0,-999.0,85,0.00,,,-99.99,0.000000,,2013-10-03 02:11:00,
2013-10-02 22:22:00,81.0,75.0,-100.00,ENE,68,3.0,-999.0,82,0.00,,,-99.99,0.000000,,2013-10-03 02:22:00,
2013-10-02 23:11:00,81.0,76.0,-100.00,ENE,73,4.0,-999.0,82,0.00,,,-99.99,0.000000,,2013-10-03 03:11:00,
2013-10-02 23:22:00,81.0,76.0,-100.00,East,79,3.0,-999.0,83,0.00,,,-99.99,0.000000,,2013-10-03 03:22:00,
2013-10-02 23:44:00,81.0,76.0,-100.00,SE,135,4.0,-999.0,84,0.00,,,-99.99,0.000000,,2013-10-03 03:44:00,
2013-10-02 23:54:00,80.0,76.0,-100.00,SSW,207,7.0,-999.0,87,0.00,,,-99.99,0.000000,,2013-10-03 03:54:00,